Weather History for KEAU - May, 2012

Change the Weather History Date:

Tuesday, May 29, 2012

  Actual Average Record
Temperature  
Mean Temperature 59 °F 62 °F  
Max Temperature 65 °F 73 °F 95 °F (2006)
Min Temperature 53 °F 50 °F 32 °F (1965)
Degree Days  
Heating Degree Days 6 5  
Month to date heating degree days 131 247  
Since 1 July heating degree days 6435 7888  
Cooling Degree Days 0 2  
Month to date cooling degree days 55 24  
Year to date cooling degree days 69 28  
Growing Degree Days 8 (Base 50)    
Moisture  
Dew Point 45 °F    
Average Humidity 64    
Maximum Humidity 77    
Minimum Humidity 51    
Precipitation  
Precipitation T in 0.12 in 1.65 in (2013)
Month to date precipitation 4.58 3.22  
Year to date precipitation 11.77 9.40  
Snow  
Snow 0.00 in 0.00 in 0.00 in ()
Month to date snowfall 0.0 0.2  
Since 1 July snowfall 23.8 47.0  
Snow Depth 0.00 in    
Sea Level Pressure  
Sea Level Pressure 29.79 in    
Wind  
Wind Speed 12 mph (WSW)    
Max Wind Speed 25 mph    
Max Gust Speed 32 mph    
Visibility 10 miles    
Events      
T = Trace of Precipitation, MM = Missing Value Source: NWS Daily Summary

Daily Weather History Graph

Daily Weather History Graph

Search for Another Location

Airport or City:

Trip Planner

Search our weather history database for the weather conditions in past years. The results will help you decide how hot, cold, wet, or windy it might be!

Date:

Astronomy

May. 29, 2012 Rise Set
Actual Time 5:24 AM CDT 8:42 PM CDT
Civil Twilight 4:48 AM CDT 9:18 PM CDT
Nautical Twilight 4:01 AM CDT 10:05 PM CDT
Astronomical Twilight 3:03 AM CDT 11:04 PM CDT
Moon 1:58 PM CDT (5/29) 1:34 AM CDT (5/29)
Length of Visible Light 16h 30m
Length of Day
15h 18m
First Quarter, 59% of the Moon is Illuminated
May 29
First Quarter
Jun 4
Full
Jun 11
Last Quarter
Jun 19
New
Jun 26
First Quarter

Hourly Weather History & Observations

Time (CDT) Temp. Dew Point Humidity Pressure Visibility Wind Dir Wind Speed Gust Speed Precip Events Conditions
12:56 AM 57.9 °F 46.9 °F 67% 29.73 in 10.0 mi SSW 4.6 mph - N/A   Clear
1:56 AM 55.9 °F 46.9 °F 72% 29.72 in 10.0 mi WSW 3.5 mph - N/A   Clear
2:56 AM 55.9 °F 46.9 °F 72% 29.71 in 10.0 mi SW 4.6 mph - N/A   Clear
3:56 AM 55.9 °F 46.0 °F 69% 29.71 in 10.0 mi WSW 8.1 mph - N/A   Clear
4:56 AM 55.4 °F 46.4 °F 72% 29.72 in 10.0 mi SW 8.1 mph - N/A   Clear
5:56 AM 54.0 °F 46.0 °F 75% 29.73 in 10.0 mi SW 8.1 mph - N/A   Clear
6:56 AM 57.0 °F 46.0 °F 67% 29.75 in 10.0 mi SW 9.2 mph - N/A   Clear
7:56 AM 59.0 °F 44.1 °F 58% 29.75 in 10.0 mi West 18.4 mph 27.6 mph N/A   Clear
8:56 AM 60.1 °F 43.0 °F 53% 29.76 in 10.0 mi WSW 19.6 mph 26.5 mph N/A   Partly Cloudy
9:56 AM 60.1 °F 42.1 °F 51% 29.76 in 10.0 mi West 17.3 mph 31.1 mph N/A   Mostly Cloudy
10:56 AM 60.1 °F 43.0 °F 53% 29.77 in 10.0 mi West 16.1 mph 24.2 mph N/A   Overcast
11:56 AM 60.1 °F 43.0 °F 53% 29.79 in 10.0 mi West 13.8 mph 25.3 mph N/A   Overcast
12:56 PM 59.0 °F 45.0 °F 60% 29.80 in 10.0 mi WSW 11.5 mph - N/A   Overcast
1:56 PM 62.1 °F 45.0 °F 53% 29.80 in 10.0 mi West 11.5 mph 21.9 mph N/A   Overcast
2:56 PM 62.1 °F 45.0 °F 53% 29.80 in 10.0 mi WSW 16.1 mph 25.3 mph N/A   Overcast
3:56 PM 63.0 °F 46.0 °F 54% 29.81 in 10.0 mi West 18.4 mph 24.2 mph N/A   Overcast
4:56 PM 63.0 °F 45.0 °F 52% 29.81 in 10.0 mi West 15.0 mph 23.0 mph N/A   Overcast
5:56 PM 63.0 °F 45.0 °F 52% 29.81 in 10.0 mi West 10.4 mph 20.7 mph N/A   Partly Cloudy
6:56 PM 62.1 °F 46.0 °F 56% 29.82 in 10.0 mi West 13.8 mph 17.3 mph N/A   Overcast
7:56 PM 60.1 °F 46.9 °F 62% 29.83 in 10.0 mi West 11.5 mph - 0.00 in   Overcast
8:56 PM 59.0 °F 46.9 °F 64% 29.83 in 10.0 mi West 9.2 mph - 0.00 in   Overcast
9:56 PM 57.0 °F 43.0 °F 59% 29.86 in 10.0 mi WNW 12.7 mph 18.4 mph N/A   Overcast
10:56 PM 55.9 °F 39.0 °F 53% 29.88 in 10.0 mi WNW 11.5 mph 21.9 mph N/A   Overcast
11:56 PM 54.0 °F 39.9 °F 59% 29.89 in 10.0 mi WNW 9.2 mph - N/A   Overcast